This demonstration page uses our WeatherBlox Daily Observations layout. Learn more.

Left ArrowRight Arrow

34.74481, -87.66753

Hourly Observations for December 31, 2017

Temp ( °F °C ) Dew Point ( °F °C ) Humidity (%) Winds ( mph kmh ) Pressure ( in mb ) Visibility ( mi km ) Precip ( " mm )
12:53 am 00:53 Cloudy 30 -1.1 20 -6.7 66 66 NNE 13 20 30.27 1025 8 13 0.00 0.00
1:53 am 01:53 Cloudy 29 -1.7 18 -7.8 63 63 ENE 8 13 30.27 1025 10 16 0.00 0.00
2:53 am 02:53 Cloudy 28 -2.2 16 -8.9 60 60 ENE 10 17 30.27 1025 10 16 0.00 0.00
3:53 am 03:53 Cloudy 27 -2.8 15 -9.4 61 61 NNE 7 11 30.26 1025 10 16 0.00 0.00
4:53 am 04:53 Cloudy 26 -3.3 15 -9.4 63 63 N 7 11 30.28 1025 10 16 0.00 0.00
5:53 am 05:53 Cloudy 24 -4.4 13 -10.6 62 62 N 8 13 30.31 1026 10 16 0.00 0.00
6:53 am 06:53 Cloudy 23 -5 11 -11.7 60 60 N 10 17 30.35 1028 10 16 0.00 0.00
7:53 am 07:53 Cloudy 22 -5.6 11 -11.7 63 63 N 8 13 30.38 1029 10 16 0.00 0.00
8:31 am 08:31 Cloudy 21 -6.1 9 -12.8 59 59 NNE 9 15 30.42 1030 10 16 0.00 0.00
8:53 am 08:53 Cloudy 20 -6.7 8 -13.3 60 60 NNE 10 17 30.40 1030 10 16 0.00 0.00
9:53 am 09:53 Cloudy 22 -5.6 10 -12.2 60 60 NNW 7 11 30.41 1030 10 16 0.00 0.00
10:53 am 10:53 Cloudy 22 -5.6 10 -12.2 60 60 N 7 11 30.41 1030 10 16 0.00 0.00
11:53 am 11:53 Sunny 26 -3.3 11 -11.7 53 53 N 8 13 30.38 1029 10 16 0.00 0.00
12:53 pm 12:53 Sunny 29 -1.7 11 -11.7 47 47 N 8 13 30.36 1028 10 16 0.00 0.00
1:53 pm 13:53 Sunny 30 -1.1 8 -13.3 39 39 N 10 17 30.35 1028 10 16 0.00 0.00
2:53 pm 14:53 Sunny 30 -1.1 7 -13.9 38 38 N 9 15 30.36 1028 10 16 0.00 0.00
3:53 pm 15:53 Sunny 29 -1.7 4 -15.6 34 34 N 10 17 30.40 1030 10 16 0.00 0.00
4:53 pm 16:53 Clear 26 -3.3 0 -17.8 32 32 N 9 15 30.44 1031 10 16 0.00 0.00
5:53 pm 17:53 Clear 24 -4.4 2 -16.7 38 38 N 14 22 30.47 1032 10 16 0.00 0.00
6:53 pm 18:53 Clear 22 -5.6 1 -17.2 40 40 N 14 22 30.48 1032 10 16 0.00 0.00
7:53 pm 19:53 Clear 20 -6.7 1 -17.2 43 43 N 12 19 30.52 1033 10 16 0.00 0.00
8:53 pm 20:53 Clear 20 -6.7 2 -16.7 45 45 N 8 13 30.55 1034 10 16 0.00 0.00
9:53 pm 21:53 Clear 19 -7.2 2 -16.7 47 47 N 8 13 30.56 1035 10 16 0.00 0.00
10:53 pm 22:53 Clear 18 -7.8 2 -16.7 49 49 N 9 15 30.57 1035 10 16 0.00 0.00
11:53 pm 23:53 Clear 16 -8.9 2 -16.7 54 54 N 12 19 30.58 1036 10 16 0.00 0.00

Powered by AerisWeather